Flag for Germany

Past Weather in 51°38'00"N, 6°38'47"E, Germany — Yesterday and Last 2 Weeks

Now
61 °F

Clear.


Feels Like: 61 °F
Forecast: 82 / 56 °F
Wind: 5 mph from Southeast

Location: Niederrhein

Current Time: Aug 5, 2020 at 1:41:33 am

Latest Report: Aug 4, 2020 at 11:50 pm


Visibility: 10 mi

Pressure: 30.01 "Hg

Humidity: 59%

Dew Point: 46 °F

Location of 51°38'00"N, 6°38'47"ELocation

Past Weather in 51°38'00"N, 6°38'47"E — Graph

°F

51°38'00"N, 6°38'47"E Temperature Yesterday

Maximum temperature yesterday: 73 °F (at 3:20 pm)
Minimum temperature yesterday: 52 °F (at 6:20 am)
Average temperature yesterday: 65 °F

High & Low Weather Summary for the Past Weeks

 TemperatureHumidityPressure
High93 °F (Jul 31, 2:50 pm)100% (Aug 4, 6:20 am)30.27 "Hg (Aug 4, 6:20 am)
Low46 °F (Jul 22, 5:50 am)24% (Jul 31, 5:20 pm)29.71 "Hg (Jul 26, 5:20 am)
Average68 °F61%30.00 "Hg
* Reported Jul 20 11:20 pm — Aug 4 11:50 pm, 51°38'00"N, 6°38'47"E. Weather by CustomWeather, © 2020

Note: Actual official high and low records may vary slightly from our data, if they occured in-between our weather recording intervals... More about our weather records

51°38'00"N, 6°38'47"E Weather History for the Previous 24 Hours

Scroll right to see more
 ConditionsComfort  
Time TempWeatherWind HumidityBarometerVisibility
11:50 pm
Tue, Aug 4
61 °FClear.5 mph59%30.01 "Hg10 mi
11:20 pm63 °FClear.5 mph52%30.04 "Hg10 mi
10:50 pm63 °FClear.5 mph52%30.01 "Hg10 mi
10:20 pm64 °FClear.5 mph49%30.04 "Hg10 mi
9:50 pm66 °FSunny.2 mph46%30.04 "Hg10 mi
9:20 pm66 °FSunny.No wind46%30.04 "Hg10 mi
8:50 pm68 °FSunny.No wind43%30.01 "Hg10 mi
8:20 pm70 °FPassing clouds.5 mph40%30.04 "HgN/A
7:50 pm72 °FPassing clouds.6 mph36%30.04 "HgN/A
7:20 pm72 °FPassing clouds.7 mph36%30.01 "HgN/A
6:50 pm72 °FPassing clouds.8 mph36%30.01 "HgN/A
6:20 pm73 °FPassing clouds.8 mph33%30.04 "HgN/A
5:50 pm72 °FSunny.7 mph36%30.04 "Hg10 mi
5:20 pm73 °FPassing clouds.10 mph33%30.04 "HgN/A
4:50 pm73 °FPassing clouds.6 mph33%30.04 "HgN/A
4:20 pm72 °FPassing clouds.8 mph36%30.04 "HgN/A
3:50 pm72 °FPassing clouds.7 mph33%30.04 "HgN/A
3:20 pm73 °FPassing clouds.9 mph36%30.04 "HgN/A
2:50 pm72 °FPassing clouds.10 mph36%30.04 "HgN/A
2:20 pm70 °FPassing clouds.9 mph35%30.04 "HgN/A
1:50 pm70 °FPassing clouds.8 mph35%30.04 "HgN/A
1:20 pm70 °FPassing clouds.8 mph38%30.04 "HgN/A
12:50 pm70 °FPassing clouds.8 mph38%30.04 "HgN/A
12:20 pm68 °FScattered clouds.10 mph49%30.04 "HgN/A
11:50 am68 °FScattered clouds.8 mph49%30.04 "HgN/A
11:20 am66 °FScattered clouds.6 mph56%30.04 "HgN/A
10:50 am68 °FScattered clouds.7 mph56%30.04 "HgN/A
10:20 am64 °FScattered clouds.3 mph64%30.04 "HgN/A
9:50 am64 °FScattered clouds.5 mph73%30.04 "HgN/A
9:20 am61 °FPassing clouds.7 mph83%30.04 "HgN/A
8:50 am61 °FPassing clouds.6 mph83%30.04 "HgN/A
8:20 am57 °FPassing clouds.5 mph94%30.04 "HgN/A
7:50 am55 °FSunny.2 mph94%30.04 "Hg10 mi
7:20 am54 °FSunny.3 mph94%30.01 "Hg10 mi
6:50 am52 °FClear.3 mph100%30.01 "Hg10 mi
6:20 am52 °FClear.3 mph100%30.01 "Hg10 mi
5:50 am54 °FClear.2 mph94%30.01 "Hg10 mi
5:20 am54 °FClear.2 mph94%30.01 "Hg10 mi
4:50 am54 °FClear.1 mph94%29.98 "Hg10 mi
Weather by CustomWeather, © 2020

See weather overview